Regional Weather Roundup
Issued by NWS Northern Indiana

Home | Current Version | Previous Version | Text Only | Print | Product List | Glossary Off
Versions: 1 2 3 4 5 6 7 8 9 10 11 12 13 14 15 16 17 18 19 20 21 22 23 24 25 26 27 28 29 30 31 32 33 34 35 36 37 38 39 40 41 42 43 44 45 46 47 48 49 50

000
ASUS43 KIWX 291010
RWRIWX

KIWX WEATHER ROUNDUP
NATIONAL WEATHER SERVICE NORTHERN INDIANA
600 AM EDT SAT AUG 29 2015

NOTE: "FAIR" INDICATES FEW OR NO CLOUDS BELOW 12,000 FEET WITH NO
SIGNIFICANT WEATHER AND/OR OBSTRUCTIONS TO VISIBILITY.

* THESE STATIONS ARE NOT UNDER NWS QUALITY CONTROL. THEY ALSO MAY NOT
  REPORT WEATHER SUCH AS PRECIPITATION OR FOG.

INZ001>027-291100-
NORTHERN INDIANA

CITY           SKY/WX    TMP DP  RH WIND       PRES   REMARKS
GARY*          MOCLDY    66  57  72 SE8       30.05F
VALPARAISO     MOCLDY    61  58  90 E5        30.06F
MICHIGAN CITY* CLOUDY    64  55  72 S5        30.07S
LAPORTE*       MOCLDY    62  62 100 CALM      30.08S
KNOX*          MOCLDY    63  59  88 SE6       30.06S
SOUTH BEND     MOCLDY    65  57  75 SE6       30.08S
GOSHEN         CLOUDY    64  58  80 SE5       30.09S
MONTICELLO*    CLOUDY    65  61  86 CALM      30.06S
LOGANSPORT*    CLOUDY    61  55  82 SE5       30.08S
ROCHESTER*     CLOUDY    64  61  88 E3        30.08F
WARSAW*        CLOUDY    61  57  88 SE3       30.09S
ANGOLA*        CLEAR     63  52  67 CALM      30.11S
FORT WAYNE     MOCLDY    63  58  83 E3        30.10F
HUNTINGTON*    MOCLDY    63  55  76 CALM      30.09F
PERU/GRISSOM   CLOUDY    64  59  85 SE6       30.07F
MARION*        MOCLDY    62  52  71 CALM      30.10S

$$
INZ028>050-291100-
CENTRAL INDIANA

CITY           SKY/WX    TMP DP  RH WIND       PRES   REMARKS
LAFAYETTE      CLOUDY    63  59  87 CALM      30.06S
KOKOMO*        MOCLDY    63  57  82 SE5       30.09S
MUNCIE*        MOCLDY    65  58  78 S6        30.10S
INDIANAPOLIS   MOCLDY    66  59  78 SE6       30.07S

$$
MIZ043>046-050>051-056>058-064>065-071>073-077>080-291100-
SOUTHWEST LOWER MICHIGAN

CITY           SKY/WX    TMP DP  RH WIND       PRES   REMARKS
BATTLE CREEK   CLOUDY    65  59  81 S3        30.11S
BENTON HARBOR  CLOUDY    65  59  81 SE6       30.06F
COLDWATER*     MOCLDY    62  59  92 SE3       30.11S
HILLSDALE*     CLOUDY    62  61  96 S3        30.12S
HOLLAND        LGT RAIN  64  61  90 E7        30.09F
GRAND RAPIDS   CLOUDY    61  60  97 NE5       30.11F
KALAMAZOO      CLOUDY    65  58  78 CALM      30.10S
STURGIS*       MOCLDY    63  59  88 SE6       30.09F
THREE RIVERS*  FAIR      61  58  92 CALM      30.10S

$$
OHZ001>008-015>018-024>025-291100-
NORTHWEST OHIO

CITY           SKY/WX    TMP DP  RH WIND       PRES   REMARKS
WAUSEON*       FAIR      61  61 100 CALM      30.12S
DEFIANCE       CLOUDY    63  58  83 CALM      30.11F
FINDLAY        CLOUDY    62  57  83 SE6       30.12S
TOLEDO EXPRESS CLOUDY    60  58  92 CALM      30.12S
TOLEDO METCALF CLOUDY    61  56  83 CALM      30.13S
LIMA           CLOUDY    60  57  89 SE3       30.12S

$$
AND FOR LAKE MICHIGAN COASTAL AND OPEN LAKE BUOY OBSERVATIONS

STATION/POSITION TEMP    WIND        PRES    VSBY  WAVE
                 AIR SEA DIR/SP/G                  HT/PER
                 (F)     (DEG/KT/KT) (MB)    (MI)  (FT/S)
MICHIGAN CITY     67     130/  8/ 11   N/A
BURNS HARBOR      68     150/  8/ 13 1017.9F
SAINT JOSEPH      66     140/  1/  4 1017.9F
SOUTH LAKE BUOY   69 68  130/ 10/ 12 1017.1F         1/ 3
4 MI NW BRIDGMAN  69 71  190/ 12/ 14   N/A           1/ 2
MICHIGAN CITY     68 71  180/ 12/ 14   N/A           1

$$
&&



USA.gov is the U.S. government's official web portal to all federal, state and local government web resources and services.